STARLINK-1743 (46568 NORAD) Tracking and Keplerian Element Data

This shows tracking and keplerian element data for the satellite.

Feedback or suggestion? Click here.




ElementValue
Catalog46568
NameSTARLINK-1743
Epoch Orbit988
Epoch Day339.00002315
Epoch Year2020
RAAN163.4082
Inclination53.0021
Eccentricity0.0001496
Argument of Perigee75.093
Mean Anonmoly260.355
Mean Motion15.05562945
Decay Rate0.00034474
L11 46568U 20070AN 20339.00002315 .00034474 00000-0 23747-2 0 9993
L22 46568 53.0021 163.4082 0001496 75.0930 260.3550 15.05562945 9888

Live tracking and technical data element details for STARLINK-1743 (NORAD 46568). STARLINK-1743 can be tracked NOW for your location showing map with azimuth and elevation plus other details from your city location.

Track the satellite on the map from your city or location and see movement details for azimuth, elevation, latitude, longitude, range, height, and movement on the map or in text.







IsCatalogInMostPopularTable: catalog: 46568, numindb: 15
Update: records affected: 1



GetName: 46568 STARLINK-1743

Hit Count: updated at: Sun, 06 Dec 2020 01:23:56 GMT